Regional Weather Roundup
Issued by NWS

Home | Current Version | Previous Version | Graphics & Text | Print | Product List | Glossary On
Versions: 1 2 3 4 5 6 7 8 9 10 11 12 13 14 15 16 17 18 19 20 21 22 23 24 25 26 27 28 29 30 31 32 33 34 35 36 37 38 39 40 41 42 43 44 45 46 47 48 49 50
000
ASUS43 KFSD 271302
RWRSD

WEATHER ROUNDUP FOR SOUTH DAKOTA
NATIONAL WEATHER SERVICE SIOUX FALLS SD
700 AM CST FRI FEB 27 2015

NOTE: "FAIR" INDICATES FEW OR NO CLOUDS BELOW 12,000 FEET WITH NO
SIGNIFICANT WEATHER AND/OR OBSTRUCTIONS TO VISIBILITY.


SDZ001>005-009-010-012>017-271400-
NORTHWEST AND NORTH CENTRAL SOUTH DAKOTA

CITY           SKY/WX    TMP DP  RH WIND       PRES   REMARKS
BUFFALO          N/A     -7 -12  79 SE9       30.12F WCI -24
FAITH            N/A     -5 -11  75 S13       30.30F WCI -24
MOBRIDGE       PTCLDY    -7 -13  75 SE6       30.40S WCI -20
$$

SDZ012>016-024>037-041>051-057-063-072>074-271400-
SOUTHWEST AND SOUTH CENTRAL SOUTH DAKOTA

CITY           SKY/WX    TMP DP  RH WIND       PRES   REMARKS
RAPID CTY ARPT CLEAR     -4  -9  79 SE8       30.23F WCI -19
PIERRE         CLEAR    -10 -13  86 CALM      30.44F
CUSTER         CLEAR     -8 -13  78 W3        30.00F
ELLSWORTH AFB  CLEAR      0  -8  71 S14       30.21F WCI -19
PHILIP         CLEAR    -12 -18  74 NW3       30.38F
PINE RIDGE     PTCLDY     1  -7  68 S5        30.26F WCI  -9
WINNER         FAIR       1  -9  62 S7        30.43F WCI -12
$$

SDZ004>011-016>023-039-040-271400-
NORTHEAST SOUTH DAKOTA

CITY           SKY/WX    TMP DP  RH WIND       PRES   REMARKS
ABERDEEN       CLEAR    -19 -25  73 S5        30.51S WCI -32
WATERTOWN      MOCLDY   -13 -19  75 S5        30.45S WCI -25
SISSETON         N/A     -8 -13  78 CALM      30.49S
$$

SDZ017-020-022-023-036>040-048>070-271400-
SOUTHEAST SOUTH DAKOTA

CITY           SKY/WX    TMP DP  RH WIND       PRES   REMARKS
SIOUX FALLS    PTCLDY    -9 -14  78 W3        30.53R
HURON          MOCLDY   -17 -22  78 CALM      30.53S
MITCHELL       CLEAR     -6 -11  79 CALM      30.55S
YANKTON        CLEAR     -6  -9  84 CALM      30.57S
$$

ABBREVIATIONS USED IN REMARKS
   TC - TEMPERATURE IN CELSIUS
  WCI - WIND CHILL INDEX
   HX - HEAT INDEX
  VSB - VISIBILITY



USA.gov is the U.S. government's official web portal to all federal, state and local government web resources and services.